DW9162 Weather Reports


time (UTC)temp
C
wind
direction
speed
KPH
gust
KPH
rain 1hr
cm
rain 24hr
cm
rain mn
cm
humidity
%
barometer
mb
20260906123017 23 258 0.0 1.6 0.00 0.00 0.00 92 1011.7
20260906121515 23 350 0.0 0.0 0.00 0.00 0.00 92 1011.5
20260906120013 23 350 0.0 0.0 0.00 0.00 0.00 92 1011.4
20260906114511 23 350 0.0 0.0 0.00 0.00 0.00 92 1011.2
20260906113011 23 350 0.0 0.0 0.00 0.00 0.00 91 1011.2
20260906111519 23 350 0.0 0.0 0.00 0.00 0.00 91 1011.2
20260906110014 23 350 0.0 0.0 0.00 0.00 0.00 91 1011.2
20260906104514 23 350 0.0 0.0 0.00 0.00 0.00 91 1011.2
20260906103009 23 350 0.0 0.0 0.00 0.00 0.00 91 1011.2
20260906101508 23 350 0.0 0.0 0.00 0.00 0.00 91 1011.2
20260906100010 23 350 0.0 0.0 0.00 0.00 0.00 91 1011.2
20260906094517 23 350 0.0 0.0 0.00 0.00 0.00 92 1011.1
20260906093009 23 350 0.0 0.0 0.00 0.00 0.00 92 1011.2
20260906091517 23 350 0.0 0.0 0.00 0.00 0.00 92 1011.2
20260906090006 22 350 0.0 0.0 0.00 0.00 0.00 91 1011.2
20260906084516 22 350 0.0 0.0 0.00 0.00 0.00 91 1011.1
20260906083009 22 350 0.0 0.0 0.00 0.00 0.00 90 1011.0
20260906081517 22 350 0.0 0.0 0.00 0.00 0.00 90 1010.9
20260906080004 23 350 0.0 0.0 0.00 0.00 0.00 90 1010.9
20260906074504 23 350 0.0 0.0 0.00 0.00 0.00 90 1010.8
20260906073002 23 350 0.0 0.0 0.00 0.00 0.00 91 1010.8
20260906071501 22 350 0.0 0.0 0.00 0.00 0.00 90 1011.0
20260906070000 22 350 0.0 0.0 0.00 0.00 0.00 90 1010.9
20260906064601 22 350 0.0 0.0 0.00 0.00 0.00 90 1011.0
20260906063101 22 350 0.0 0.0 0.00 0.00 0.00 89 1010.9
20260906061556 22 350 0.0 0.0 0.00 0.00 0.00 88 1011.1
20260906060055 22 350 0.0 0.0 0.00 0.00 0.00 87 1011.2
20260906054555 22 350 0.0 0.0 0.00 0.00 0.00 87 1011.4
20260906053050 23 350 0.0 0.0 0.00 0.00 0.00 87 1011.4
20260906051553 23 350 0.0 0.0 0.00 0.00 0.00 87 1011.8
20260906050111 23 350 0.0 0.0 0.00 0.00 0.00 87 1011.7
20260906044553 23 350 0.0 0.0 0.00 0.00 0.00 86 1011.8
20260906043050 23 350 0.0 0.0 0.00 0.00 0.00 87 1011.7
20260906041542 23 350 0.0 0.0 0.00 0.00 0.00 86 1011.7
20260906040045 23 350 0.0 0.0 0.00 0.00 0.00 85 1011.7
20260906034543 23 350 0.0 0.0 0.00 0.00 0.00 86 1011.8
20260906033040 23 350 0.0 0.0 0.00 0.00 0.00 85 1011.8
20260906031543 24 350 0.0 0.0 0.00 0.00 0.00 85 1012.2
20260906030039 24 350 0.0 0.0 0.00 0.00 0.00 85 1012.2
20260906024539 24 350 0.0 0.0 0.00 0.00 0.00 85 1012.1
20260906023038 24 360 0.0 0.0 0.00 0.00 0.00 85 1012.3
20260906021536 24 360 0.0 0.0 0.00 0.00 0.00 85 1012.2
20260906020037 24 360 0.0 0.0 0.00 0.00 0.00 85 1012.2
20260906014536 24 360 0.0 0.0 0.00 0.00 0.00 85 1011.9
20260906013036 25 360 0.0 0.0 0.00 0.00 0.00 84 1011.9
20260906011537 25 316 0.0 0.0 0.00 0.00 0.00 83 1011.8
20260906010035 25 316 0.0 0.0 0.00 0.00 0.00 84 1010.8
20260906004537 25 316 0.0 0.0 0.00 0.00 0.00 83 1010.5
20260906003034 25 316 0.0 0.0 0.00 0.00 0.00 82 1010.4
20260906001535 25 316 0.0 0.0 0.00 0.00 0.00 82 1010.3
20260906000033 26 320 0.0 1.6 0.00 0.00 0.00 81 1010.0
20260905234533 26 128 0.0 1.6 0.00 0.00 0.00 79 1009.7
20260905233032 26 150 0.0 0.0 0.00 0.00 0.00 78 1010.0
20260905231531 26 150 0.0 0.0 0.00 0.00 0.00 77 1009.8
20260905230031 26 207 0.0 3.2 0.00 0.00 0.00 76 1010.2
20260905224530 26 82 0.0 8.0 0.00 0.00 0.00 76 1010.4
20260905223030 26 87 0.0 4.8 0.00 0.00 0.00 78 1010.4
20260905221528 26 76 0.0 4.8 0.00 0.00 0.00 77 1010.0
20260905220029 27 355 0.0 4.8 0.00 0.00 0.00 70 1009.9
20260905214529 30 38 3.2 11.3 0.00 0.00 0.00 55 1009.9
20260905213026 38 84 0.0 6.4 0.00 0.00 0.00 46 1009.3
20260905211525 38 238 0.0 4.8 0.00 0.00 0.00 42 1008.9
20260905210028 38 111 0.0 4.8 0.00 0.00 0.00 44 1009.0
20260905204521 37 209 3.2 8.0 0.00 0.00 0.00 44 1009.3
20260905203020 37 279 0.0 3.2 0.00 0.00 0.00 46 1009.6
20260905201522 37 171 0.0 3.2 0.00 0.00 0.00 44 1009.7
20260905200028 38 254 0.0 8.0 0.00 0.00 0.00 44 1009.8
20260905194514 38 209 0.0 4.8 0.00 0.00 0.00 43 1009.9
20260905193024 37 163 0.0 0.0 0.00 0.00 0.00 44 1010.1
20260905191508 37 228 3.2 8.0 0.00 0.00 0.00 45 1010.3
20260905190011 36 302 0.0 8.0 0.00 0.00 0.00 48 1010.6
20260905184507 36 93 0.0 6.4 0.00 0.00 0.00 48 1010.9
20260905183001 36 84 0.0 1.6 0.00 0.00 0.00 49 1011.0
20260905181601 36 325 0.0 3.2 0.00 0.00 0.00 51 1011.2
20260905180058 36 199 0.0 6.4 0.00 0.00 0.00 49 1011.3
20260905174558 35 93 0.0 4.8 0.00 0.00 0.00 50 1011.5
20260905173100 35 161 0.0 4.8 0.00 0.00 0.00 56 1011.8
20260905171548 35 271 0.0 3.2 0.00 0.00 0.00 53 1012.1
20260905170047 34 119 0.0 4.8 0.00 0.00 0.00 54 1012.1
20260905164540 33 184 1.6 8.0 0.00 0.00 0.00 55 1012.4
20260905163040 32 234 0.0 3.2 0.00 0.00 0.00 60 1012.3
20260905161533 32 246 0.0 3.2 0.00 0.00 0.00 61 1012.7
20260905160045 32 236 0.0 6.4 0.00 0.00 0.00 61 1013.0
20260905154526 31 286 0.0 3.2 0.00 0.00 0.00 65 1013.1
20260905153024 31 228 0.0 4.8 0.00 0.00 0.00 65 1013.2
20260905151521 30 258 0.0 6.4 0.00 0.00 0.00 67 1013.3
20260905150025 30 289 0.0 6.4 0.00 0.00 0.00 67 1013.2
20260905144536 29 209 0.0 4.8 0.00 0.00 0.00 69 1013.3
20260905143019 28 241 0.0 3.2 0.00 0.00 0.00 73 1013.4
20260905141507 28 288 0.0 4.8 0.00 0.00 0.00 76 1013.5
20260905140005 27 239 0.0 4.8 0.00 0.00 0.00 82 1013.6
20260905134607 26 223 0.0 3.2 0.00 0.00 0.00 84 1013.5
20260905134502 26 196 0.0 3.2 0.00 0.00 0.00 84 1013.5
20260905133059 26 218 0.0 0.0 0.00 0.00 0.00 86 1013.6
20260905131559 25 195 0.0 3.2 0.00 0.00 0.00 88 1013.9
20260905130058 25 117 0.0 0.0 0.00 0.00 0.00 91 1013.9
20260905124552 24 117 0.0 0.0 0.00 0.00 0.00 92 1013.9